Location: Sobotiste
(48.7170°N, 17.4000°E)
Time: 02:48:46
(UTC+01:00)

Tiangong 2 - Visible Passes

Search period start: 23 January 2019 00:00
Search period end: 02 February 2019 00:00
Orbit: 380 x 392 km, 42.8° (Epoch: 22 January)

Date Brightness Start Highest point End Pass type
(mag) Time Alt. Az. Time Alt. Az. Time Alt. Az.
23 Jan 4.3 04:36:27 12° ESE 04:36:27 12° ESE 04:36:52 10° ESE visible
23 Jan 2.9 06:08:42 15° SW 06:10:25 23° SSW 06:13:04 10° SE visible
24 Jan 3.1 05:12:25 23° SSE 05:12:25 23° SSE 05:14:19 10° SE visible
24 Jan 3.5 06:45:56 10° WSW 06:47:45 14° SSW 06:49:33 10° SSE visible
25 Jan 3.0 05:48:22 18° SSW 05:48:56 19° SSW 05:51:17 10° SSE visible
26 Jan 4.0 04:52:07 13° SE 04:52:07 13° SE 04:52:42 10° SE visible
27 Jan 3.6 05:28:08 13° S 05:28:08 13° S 05:29:09 10° S visible
